"Pseudo-MPEC" for S001606

Created 2026 Jun 17 18:35:07 UT using Find_Orb

Click here for an explanation of pseudo-MPECs

 
 Astrometry: 
     S001606*KB2026 06 08.12922816 43 35.922+10 59 26.13   ~68Co 20.7 VZNEOCPY05
     S001606 KB2026 06 08.14222116 43 35.733+10 59 15.36   ~68Co 21.0 VZNEOCPY05
     S001606 KB2026 06 08.15541416 43 35.462+10 59 05.96   ~68Co 20.6 VZNEOCPY05

Station data:
(Y05) SONEAR Wykrota-CEAMIG, Serra da Piedade  (S19.824251 W43.690000)
   Brazil.  Observer C. Jacques. 0.45-m f/2.9 reflector + CMO.

Orbital elements:  S001606
   Perihelion 2026 Apr 1.060912 +/- 49.6 TT =  1:27:42.8 (JD 2461131.560912)
Epoch 2026 Jun  8.0 TT = JDT 2461199.5   Earth MOID: 0.0051   Ju: 0.0141
M   3.887341661 +/- 18              (J2000 ecliptic)             AutoNEOCP
n   0.057218043 +/- 0.149           Peri.  324.580841 +/- 110
a   6.669819000 +/- 11.6            Node   214.556318 +/- 50
e   0.86313679 +/- 0.253            Incl.   15.435660 +/- 5.4
P  17.22547                H 20.62  G  0.15   U 11.5  SR
q 0.912852799 +/- 0.415    Q 12.42678520 +/- 80
From 3 observations 2026 June 8 (37.7 min); mean residual 0".33
Residuals in arcseconds: 
260608 Y05  .20-  .26+    260608 Y05  .40+  .52-    260608 Y05  .20-  .26+    

Ephemerides (geocentric):
Date (UTC) HH   RA             Dec           delta  r     elong  mag " sig PA
---- --------  ------------   ------------  ------ ------ -----  --- --------
2026 06 17 19  16 42 48.085   +08 52 51.02  .57429 1.5204 144.5 21.4  38d  87
2026 06 17 20  16 42 48.104   +08 52 17.70  .57484 1.5209 144.5 21.4  38d  87
2026 06 17 21  16 42 48.126   +08 51 44.38  .57539 1.5214 144.5 21.4  38d  87
2026 06 17 22  16 42 48.149   +08 51 11.05  .57594 1.5218 144.4 21.4  38d  87
2026 06 17 23  16 42 48.175   +08 50 37.73  .57649 1.5223 144.4 21.4  38d  87
2026 06 18 00  16 42 48.202   +08 50 04.40  .57704 1.5228 144.4 21.4  38d  87
2026 06 18 01  16 42 48.232   +08 49 31.06  .57760 1.5232 144.4 21.4  38d  87
2026 06 18 02  16 42 48.264   +08 48 57.73  .57815 1.5237 144.4 21.4  38d  87
2026 06 18 03  16 42 48.297   +08 48 24.39  .57870 1.5242 144.4 21.4  38d  87
2026 06 18 04  16 42 48.333   +08 47 51.04  .57925 1.5247 144.4 21.4  38d  87
2026 06 18 05  16 42 48.371   +08 47 17.70  .57980 1.5251 144.4 21.4  38d  87
2026 06 18 06  16 42 48.411   +08 46 44.35  .58035 1.5256 144.4 21.4  38d  87
2026 06 18 07  16 42 48.453   +08 46 11.00  .58091 1.5261 144.4 21.4  38d  87
2026 06 18 08  16 42 48.497   +08 45 37.65  .58146 1.5265 144.3 21.5  38d  87
2026 06 18 09  16 42 48.543   +08 45 04.29  .58201 1.5270 144.3 21.5  38d  87
2026 06 18 10  16 42 48.592   +08 44 30.93  .58256 1.5275 144.3 21.5  38d  87
2026 06 18 11  16 42 48.642   +08 43 57.57  .58312 1.5279 144.3 21.5  38d  87
2026 06 18 12  16 42 48.694   +08 43 24.21  .58367 1.5284 144.3 21.5  38d  87
2026 06 18 13  16 42 48.749   +08 42 50.84  .58422 1.5289 144.3 21.5  38d  87
2026 06 18 14  16 42 48.805   +08 42 17.48  .58478 1.5294 144.3 21.5  38d  87
2026 06 18 15  16 42 48.864   +08 41 44.10  .58533 1.5298 144.3 21.5  38d  87
2026 06 18 16  16 42 48.925   +08 41 10.73  .58589 1.5303 144.3 21.5  38d  87
2026 06 18 17  16 42 48.987   +08 40 37.36  .58644 1.5308 144.2 21.5  38d  87
2026 06 18 18  16 42 49.052   +08 40 03.98  .58700 1.5312 144.2 21.5  38d  87
2026 06 18 19  16 42 49.119   +08 39 30.60  .58755 1.5317 144.2 21.5  38d  87
2026 06 18 20  16 42 49.188   +08 38 57.21  .58811 1.5322 144.2 21.5  38d  87
2026 06 18 21  16 42 49.259   +08 38 23.83  .58866 1.5326 144.2 21.5  38d  87
2026 06 18 22  16 42 49.332   +08 37 50.44  .58922 1.5331 144.2 21.5  38d  87
2026 06 18 23  16 42 49.407   +08 37 17.05  .58977 1.5336 144.2 21.5  38d  87
2026 06 19 00  16 42 49.485   +08 36 43.66  .59033 1.5341 144.2 21.5  38d  87
2026 06 19 01  16 42 49.564   +08 36 10.27  .59089 1.5345 144.2 21.5  38d  87
2026 06 19 02  16 42 49.645   +08 35 36.87  .59144 1.5350 144.1 21.5  38d  87
2026 06 19 03  16 42 49.729   +08 35 03.47  .59200 1.5355 144.1 21.5  38d  87
2026 06 19 04  16 42 49.814   +08 34 30.08  .59256 1.5359 144.1 21.5  38d  87
2026 06 19 05  16 42 49.902   +08 33 56.67  .59311 1.5364 144.1 21.5  38d  87
2026 06 19 06  16 42 49.992   +08 33 23.27  .59367 1.5369 144.1 21.5  38d  87
2026 06 19 07  16 42 50.084   +08 32 49.86  .59423 1.5374 144.1 21.5  38d  87
2026 06 19 08  16 42 50.177   +08 32 16.46  .59479 1.5378 144.1 21.5  38d  87
2026 06 19 09  16 42 50.273   +08 31 43.05  .59534 1.5383 144.1 21.5  38d  87
2026 06 19 10  16 42 50.372   +08 31 09.64  .59590 1.5388 144.1 21.5  38d  87
2026 06 19 11  16 42 50.472   +08 30 36.22  .59646 1.5392 144.0 21.5  38d  87
2026 06 19 12  16 42 50.574   +08 30 02.81  .59702 1.5397 144.0 21.5  38d  87
2026 06 19 13  16 42 50.678   +08 29 29.39  .59758 1.5402 144.0 21.5  38d  87
2026 06 19 14  16 42 50.784   +08 28 55.97  .59814 1.5407 144.0 21.5  38d  87
2026 06 19 15  16 42 50.893   +08 28 22.55  .59870 1.5411 144.0 21.5  38d  87
2026 06 19 16  16 42 51.003   +08 27 49.13  .59926 1.5416 144.0 21.5  38d  87
2026 06 19 17  16 42 51.116   +08 27 15.71  .59982 1.5421 144.0 21.5  38d  87
2026 06 19 18  16 42 51.231   +08 26 42.28  .60038 1.5425 144.0 21.5  38d  87